• In Belgien
  • Länderverzeichnis
  • Für 7 Tage
  • Wassertemperatur
  • Satellitenkarten
  • Wetterkarte
  • Widgets
  • user-avatar
    Anmelden

    Stündliche Wetter Armawir

    Heute, 21 Oktober, Sonntag

    Zeit Temperatur Niederschläge Wind Luftdruck Luftfeuchtigkeit
    00:00 +15°C° 0.2 mm 1 m/S 687 mmHg 64%
    01:00 +15°C° 0.1 mm 1 m/S 687 mmHg 66%
    02:00 +15°C° 0.1 mm 1 m/S 687 mmHg 67%
    03:00 +14°C° 0.1 mm 1 m/S 687 mmHg 68%
    04:00 +14°C° 0 mm 1 m/S 687 mmHg 69%
    05:00 +14°C° 0 mm 1 m/S 687 mmHg 70%
    06:00 +14°C° 0 mm 1 m/S 687 mmHg 71%
    07:00 +15°C° 0 mm 1 m/S 687 mmHg 64%
    08:00 +18°C° 0 mm 1 m/S 688 mmHg 58%
    09:00 +19°C° 0 mm 2 m/S 688 mmHg 51%
    10:00 +20°C° 0 mm 2 m/S 688 mmHg 48%
    11:00 +21°C° 0 mm 2 m/S 688 mmHg 44%
    12:00 +22°C° 0 mm 3 m/S 688 mmHg 40%
    13:00 +22°C° 0 mm 3 m/S 688 mmHg 40%
    14:00 +22°C° 0 mm 3 m/S 687 mmHg 39%
    15:00 +22°C° 0 mm 3 m/S 687 mmHg 38%
    16:00 +21°C° 0.1 mm 3 m/S 687 mmHg 42%
    17:00 +19°C° 0.1 mm 2 m/S 687 mmHg 46%
    18:00 +18°C° 0.1 mm 2 m/S 687 mmHg 50%
    19:00 +17°C° 0.1 mm 2 m/S 687 mmHg 51%
    20:00 +18°C° 0.1 mm 1 m/S 687 mmHg 52%
    21:00 +18°C° 0.1 mm 1 m/S 687 mmHg 53%
    22:00 +16°C° 0 mm 1 m/S 687 mmHg 55%
    23:00 +16°C° 0 mm 1 m/S 687 mmHg 56%

    Morgen, 22 Oktober, Montag

    Zeit Temperatur Niederschläge Wind Luftdruck Luftfeuchtigkeit
    00:00 +15°C° 0 mm 1 m/S 687 mmHg 57%
    01:00 +15°C° 0 mm 1 m/S 687 mmHg 57%
    02:00 +15°C° 0 mm 1 m/S 687 mmHg 58%
    03:00 +14°C° 0 mm 1 m/S 687 mmHg 58%
    04:00 +14°C° 0.1 mm 1 m/S 687 mmHg 59%
    05:00 +14°C° 0.1 mm 1 m/S 687 mmHg 59%
    06:00 +14°C° 0.1 mm 1 m/S 687 mmHg 60%
    07:00 +16°C° 0.2 mm 1 m/S 688 mmHg 57%
    08:00 +17°C° 0.2 mm 2 m/S 688 mmHg 54%
    09:00 +18°C° 0.2 mm 2 m/S 689 mmHg 51%
    10:00 +19°C° 0 mm 2 m/S 689 mmHg 48%
    11:00 +20°C° 0 mm 2 m/S 689 mmHg 46%
    12:00 +21°C° 0 mm 2 m/S 689 mmHg 43%
    13:00 +23°C° 0 mm 2 m/S 688 mmHg 43%
    14:00 +23°C° 0 mm 2 m/S 688 mmHg 42%
    15:00 +23°C° 0 mm 2 m/S 688 mmHg 42%
    16:00 +20°C° 0.1 mm 2 m/S 687 mmHg 46%
    17:00 +20°C° 0.1 mm 1 m/S 687 mmHg 51%
    18:00 +18°C° 0.1 mm 1 m/S 687 mmHg 56%
    19:00 +18°C° 0.2 mm 1 m/S 687 mmHg 57%
    20:00 +16°C° 0.2 mm 1 m/S 688 mmHg 59%
    21:00 +16°C° 0.2 mm 1 m/S 688 mmHg 60%
    22:00 +16°C° 0.2 mm 1 m/S 688 mmHg 61%
    23:00 +15°C° 0.2 mm 1 m/S 688 mmHg 62%

    übermorgen, 23 Oktober, Dienstag

    Zeit Temperatur Niederschläge Wind Luftdruck Luftfeuchtigkeit
    00:00 +15°C° 0.2 mm 1 m/S 688 mmHg 63%
    01:00 +15°C° 0.1 mm 1 m/S 688 mmHg 64%
    02:00 +15°C° 0.1 mm 1 m/S 688 mmHg 66%
    03:00 +14°C° 0.1 mm 1 m/S 688 mmHg 67%
    04:00 +14°C° 0 mm 1 m/S 688 mmHg 67%
    05:00 +14°C° 0 mm 1 m/S 688 mmHg 68%
    06:00 +14°C° 0 mm 1 m/S 688 mmHg 68%
    07:00 +15°C° 0 mm 1 m/S 688 mmHg 63%
    08:00 +17°C° 0 mm 2 m/S 688 mmHg 57%
    09:00 +19°C° 0 mm 2 m/S 689 mmHg 52%
    10:00 +20°C° 0 mm 2 m/S 689 mmHg 49%
    11:00 +21°C° 0 mm 3 m/S 688 mmHg 45%
    12:00 +22°C° 0 mm 3 m/S 688 mmHg 42%
    13:00 +22°C° 0.1 mm 3 m/S 688 mmHg 41%
    14:00 +22°C° 0.1 mm 3 m/S 687 mmHg 40%
    15:00 +22°C° 0.1 mm 4 m/S 687 mmHg 39%
    16:00 +20°C° 0.1 mm 3 m/S 687 mmHg 44%
    17:00 +19°C° 0.1 mm 3 m/S 687 mmHg 49%
    18:00 +17°C° 0.1 mm 2 m/S 687 mmHg 54%
    19:00 +17°C° 0 mm 2 m/S 687 mmHg 54%
    20:00 +17°C° 0 mm 2 m/S 687 mmHg 55%
    21:00 +16°C° 0 mm 2 m/S 687 mmHg 56%
    22:00 +16°C° 0.1 mm 2 m/S 687 mmHg 56%
    23:00 +16°C° 0.1 mm 2 m/S 687 mmHg 57%

    24 Oktober, Mittwoch

    Zeit Temperatur Niederschläge Wind Luftdruck Luftfeuchtigkeit
    00:00 +16°C° 0.1 mm 2 m/S 687 mmHg 57%
    01:00 +15°C° 0.1 mm 2 m/S 686 mmHg 59%
    02:00 +15°C° 0.1 mm 2 m/S 686 mmHg 61%
    03:00 +15°C° 0.1 mm 2 m/S 686 mmHg 63%
    04:00 +14°C° 0.1 mm 2 m/S 686 mmHg 64%
    05:00 +14°C° 0.1 mm 2 m/S 686 mmHg 66%
    06:00 +14°C° 0.1 mm 2 m/S 685 mmHg 67%
    07:00 +15°C° 0.1 mm 2 m/S 686 mmHg 64%
    08:00 +17°C° 0.1 mm 2 m/S 686 mmHg 60%
    09:00 +18°C° 0.1 mm 3 m/S 686 mmHg 56%
    10:00 +19°C° 0.1 mm 3 m/S 685 mmHg 54%
    11:00 +20°C° 0.1 mm 3 m/S 685 mmHg 51%
    12:00 +21°C° 0.1 mm 4 m/S 685 mmHg 49%
    13:00 +20°C° 0.4 mm 4 m/S 684 mmHg 50%
    14:00 +20°C° 0.4 mm 4 m/S 684 mmHg 51%
    15:00 +20°C° 0.4 mm 4 m/S 683 mmHg 53%
    16:00 +19°C° 0.4 mm 4 m/S 683 mmHg 57%
    17:00 +18°C° 0.4 mm 3 m/S 683 mmHg 61%
    18:00 +17°C° 0.4 mm 3 m/S 682 mmHg 65%
    19:00 +17°C° 1.2 mm 3 m/S 682 mmHg 70%
    20:00 +16°C° 1.2 mm 3 m/S 682 mmHg 74%
    21:00 +16°C° 1.2 mm 2 m/S 682 mmHg 78%
    22:00 +15°C° 2.4 mm 2 m/S 682 mmHg 78%
    23:00 +15°C° 2.4 mm 2 m/S 682 mmHg 79%

    25 Oktober, Donnerstag

    Zeit Temperatur Niederschläge Wind Luftdruck Luftfeuchtigkeit
    00:00 +15°C° 2.4 mm 2 m/S 681 mmHg 79%
    01:00 +14°C° 0.9 mm 3 m/S 681 mmHg 79%
    02:00 +14°C° 0.9 mm 3 m/S 681 mmHg 79%
    03:00 +14°C° 0.9 mm 3 m/S 681 mmHg 79%
    04:00 +14°C° 0.2 mm 3 m/S 681 mmHg 78%
    05:00 +14°C° 0.2 mm 3 m/S 681 mmHg 78%
    06:00 +13°C° 0.2 mm 3 m/S 680 mmHg 77%
    07:00 +14°C° 0.5 mm 3 m/S 680 mmHg 73%
    08:00 +15°C° 0.5 mm 4 m/S 680 mmHg 69%
    09:00 +17°C° 0.5 mm 4 m/S 680 mmHg 65%
    10:00 +17°C° 0.2 mm 5 m/S 680 mmHg 60%
    11:00 +19°C° 0.2 mm 6 m/S 679 mmHg 56%
    12:00 +21°C° 0.2 mm 6 m/S 679 mmHg 51%
    13:00 +21°C° 0.5 mm 6 m/S 679 mmHg 51%
    14:00 +21°C° 0.5 mm 6 m/S 678 mmHg 52%
    15:00 +21°C° 0.5 mm 6 m/S 678 mmHg 52%
    16:00 +20°C° 0.6 mm 5 m/S 678 mmHg 58%
    17:00 +19°C° 0.6 mm 4 m/S 678 mmHg 63%
    18:00 +18°C° 0.6 mm 4 m/S 678 mmHg 69%
    19:00 +17°C° 0.4 mm 4 m/S 678 mmHg 71%
    20:00 +17°C° 0.4 mm 4 m/S 678 mmHg 73%
    21:00 +17°C° 0.4 mm 4 m/S 678 mmHg 75%
    22:00 +15°C° 0.6 mm 4 m/S 678 mmHg 77%
    23:00 +15°C° 0.6 mm 4 m/S 677 mmHg 78%

    26 Oktober, Freitag

    Zeit Temperatur Niederschläge Wind Luftdruck Luftfeuchtigkeit
    00:00 +15°C° 0.6 mm 4 m/S 677 mmHg 79%
    01:00 +15°C° 0.1 mm 4 m/S 677 mmHg 79%
    02:00 +14°C° 0.1 mm 4 m/S 677 mmHg 79%
    03:00 +14°C° 0.1 mm 4 m/S 677 mmHg 79%
    04:00 +14°C° 0.2 mm 4 m/S 677 mmHg 78%
    05:00 +14°C° 0.2 mm 5 m/S 677 mmHg 77%
    06:00 +14°C° 0.2 mm 5 m/S 677 mmHg 77%
    07:00 +16°C° 0.1 mm 6 m/S 678 mmHg 70%
    08:00 +17°C° 0.1 mm 7 m/S 678 mmHg 64%
    09:00 +18°C° 0.1 mm 7 m/S 679 mmHg 57%
    10:00 +19°C° 1 mm 6 m/S 679 mmHg 60%
    11:00 +17°C° 1 mm 6 m/S 679 mmHg 63%
    12:00 +17°C° 1 mm 5 m/S 679 mmHg 66%
    13:00 +18°C° 0.9 mm 4 m/S 679 mmHg 66%
    14:00 +17°C° 0.9 mm 4 m/S 679 mmHg 66%
    15:00 +17°C° 0.9 mm 4 m/S 679 mmHg 66%
    16:00 +16°C° 0.9 mm 3 m/S 679 mmHg 69%
    17:00 +16°C° 0.9 mm 3 m/S 680 mmHg 72%
    18:00 +15°C° 0.9 mm 2 m/S 680 mmHg 74%
    19:00 +13°C° 1.3 mm 3 m/S 681 mmHg 75%
    20:00 +12°C° 1.3 mm 4 m/S 681 mmHg 75%
    21:00 +11°C° 1.3 mm 4 m/S 682 mmHg 76%
    22:00 +11°C° 1 mm 4 m/S 682 mmHg 75%
    23:00 +10°C° 1 mm 4 m/S 683 mmHg 75%
    Mehr zeigen